| time (UTC) | temp F | wind direction | speed MPH | gust MPH | rain 1hr in | rain 24hr in | rain mn in | humidity % | barometer mb |
| 20260506212611 | 46 | 305 | 6.0 | 12.0 | 0.00 | 0.00 | 0.00 | 51 | 1013.8 |
| 20260506212336 | 46 | 313 | 8.0 | 12.0 | 0.00 | 0.00 | 0.00 | 51 | 1013.8 |
| 20260506210729 | 46 | 292 | 7.0 | 12.0 | 0.00 | 0.00 | 0.00 | 50 | 1013.8 |
| 20260506210232 | 46 | 291 | 8.0 | 12.0 | 0.00 | 0.00 | 0.00 | 49 | 1013.8 |
| 20260506205733 | 46 | 301 | 7.0 | 12.0 | 0.00 | 0.00 | 0.00 | 49 | 1013.7 |
| 20260506205233 | 46 | 297 | 6.0 | 10.0 | 0.00 | 0.00 | 0.00 | 51 | 1013.8 |
| 20260506204729 | 46 | 297 | 8.0 | 11.0 | 0.00 | 0.00 | 0.00 | 50 | 1013.9 |
| 20260506204229 | 46 | 311 | 9.0 | 13.0 | 0.00 | 0.00 | 0.00 | 49 | 1013.9 |
| 20260506203728 | 46 | 317 | 9.0 | 13.0 | 0.00 | 0.00 | 0.00 | 49 | 1013.9 |
| 20260506203558 | 46 | 300 | 8.0 | 10.0 | 0.00 | 0.00 | 0.00 | 51 | 1014.0 |
| 20260506203546 | 46 | 306 | 7.0 | 10.0 | 0.00 | 0.00 | 0.00 | 50 | 1013.9 |
| 20260506203528 | 46 | 302 | 8.0 | 12.0 | 0.00 | 0.00 | 0.00 | 50 | 1013.9 |
| 20260506203308 | 46 | 298 | 8.0 | 12.0 | 0.00 | 0.00 | 0.00 | 49 | 1013.9 |
| 20260506202941 | 46 | 278 | 8.0 | 12.0 | 0.00 | 0.00 | 0.00 | 52 | 1013.9 |
| 20260506201811 | 46 | 308 | 8.0 | 11.0 | 0.00 | 0.00 | 0.00 | 49 | 1013.9 |
| 20260506200855 | 46 | 311 | 8.0 | 10.0 | 0.00 | 0.00 | 0.00 | 51 | 1014.0 |
| 20260506200308 | 46 | 297 | 7.0 | 10.0 | 0.00 | 0.00 | 0.00 | 50 | 1014.0 |
| 20260506195229 | 46 | 296 | 7.0 | 10.0 | 0.00 | 0.00 | 0.00 | 51 | 1014.0 |
| 20260506194728 | 46 | 303 | 7.0 | 10.0 | 0.00 | 0.00 | 0.00 | 51 | 1013.9 |
| 20260506194229 | 46 | 303 | 6.0 | 10.0 | 0.00 | 0.00 | 0.00 | 51 | 1013.9 |
| 20260506193730 | 46 | 311 | 6.0 | 9.0 | 0.00 | 0.00 | 0.00 | 52 | 1013.9 |
| 20260506193457 | 47 | 302 | 6.0 | 9.0 | 0.00 | 0.00 | 0.00 | 50 | 1013.9 |
| 20260506193310 | 47 | 281 | 7.0 | 9.0 | 0.00 | 0.00 | 0.00 | 49 | 1013.9 |
| 20260506192230 | 47 | 303 | 5.0 | 9.0 | 0.00 | 0.00 | 0.00 | 52 | 1013.8 |
| 20260506191729 | 47 | 292 | 5.0 | 9.0 | 0.00 | 0.00 | 0.00 | 50 | 1013.9 |
| 20260506191436 | 47 | 265 | 4.0 | 8.0 | 0.00 | 0.00 | 0.00 | 50 | 1013.9 |
| 20260506191304 | 47 | 239 | 4.0 | 8.0 | 0.00 | 0.00 | 0.00 | 49 | 1013.8 |
| 20260506190233 | 47 | 290 | 5.0 | 10.0 | 0.00 | 0.00 | 0.00 | 48 | 1013.9 |
| 20260506185730 | 47 | 309 | 5.0 | 10.0 | 0.00 | 0.00 | 0.00 | 49 | 1013.9 |
| 20260506185231 | 47 | 294 | 5.0 | 9.0 | 0.00 | 0.00 | 0.00 | 49 | 1013.8 |
| 20260506184728 | 47 | 264 | 5.0 | 9.0 | 0.00 | 0.00 | 0.00 | 49 | 1013.8 |
| 20260506184228 | 47 | 315 | 5.0 | 9.0 | 0.00 | 0.00 | 0.00 | 49 | 1013.7 |
| 20260506183730 | 48 | 295 | 5.0 | 8.0 | 0.00 | 0.00 | 0.00 | 49 | 1013.8 |
| 20260506183229 | 48 | 304 | 4.0 | 8.0 | 0.00 | 0.00 | 0.00 | 49 | 1013.7 |
| 20260506182729 | 48 | 293 | 4.0 | 8.0 | 0.00 | 0.00 | 0.00 | 47 | 1013.7 |
| 20260506182229 | 48 | 292 | 4.0 | 8.0 | 0.00 | 0.00 | 0.00 | 48 | 1013.7 |
| 20260506181731 | 48 | 266 | 3.0 | 7.0 | 0.00 | 0.00 | 0.00 | 50 | 1013.8 |
| 20260506181229 | 48 | 305 | 4.0 | 8.0 | 0.00 | 0.00 | 0.00 | 50 | 1013.8 |
| 20260506180733 | 48 | 267 | 5.0 | 8.0 | 0.00 | 0.00 | 0.00 | 47 | 1013.9 |
| 20260506180229 | 48 | 309 | 6.0 | 10.0 | 0.00 | 0.00 | 0.00 | 50 | 1013.9 |
| 20260506180000 | 49 | 299 | 7.0 | 11.0 | 0.00 | 0.00 | 0.00 | 46 | 1014.0 |
| 20260506175942 | 49 | 297 | 5.0 | 10.0 | 0.00 | 0.00 | 0.00 | 47 | 1014.1 |
| 20260506175929 | 49 | 276 | 4.0 | 8.0 | 0.00 | 0.00 | 0.00 | 45 | 1014.0 |
| 20260506175753 | 48 | 293 | 7.0 | 10.0 | 0.00 | 0.00 | 0.00 | 47 | 1013.8 |
| 20260506175429 | 48 | 307 | 5.0 | 10.0 | 0.00 | 0.00 | 0.00 | 47 | 1013.9 |
| 20260506175023 | 50 | 302 | 5.0 | 9.0 | 0.00 | 0.00 | 0.00 | 47 | 1014.0 |
| 20260506174950 | 50 | 304 | 4.0 | 8.0 | 0.00 | 0.00 | 0.00 | 46 | 1014.0 |
| 20260506174811 | 48 | 304 | 4.0 | 10.0 | 0.00 | 0.00 | 0.00 | 47 | 1013.9 |
| 20260506173910 | 49 | 286 | 6.0 | 11.0 | 0.00 | 0.00 | 0.00 | 47 | 1014.0 |
| 20260506172430 | 50 | 296 | 4.0 | 7.0 | 0.00 | 0.00 | 0.00 | 47 | 1014.0 |
| 20260506171305 | 49 | 284 | 4.0 | 10.0 | 0.00 | 0.00 | 0.00 | 47 | 1014.1 |
| 20260506170229 | 48 | 302 | 7.0 | 13.0 | 0.00 | 0.00 | 0.00 | 50 | 1014.1 |
| 20260506165733 | 49 | 299 | 8.0 | 13.0 | 0.00 | 0.00 | 0.00 | 45 | 1014.1 |
| 20260506165229 | 49 | 313 | 6.0 | 10.0 | 0.00 | 0.00 | 0.00 | 49 | 1014.1 |
| 20260506164948 | 47 | 309 | 4.0 | 11.0 | 0.00 | 0.00 | 0.00 | 51 | 1014.1 |
| 20260506164801 | 48 | 311 | 5.0 | 10.0 | 0.00 | 0.00 | 0.00 | 49 | 1014.1 |
| 20260506163729 | 47 | 298 | 4.0 | 11.0 | 0.00 | 0.00 | 0.00 | 49 | 1014.2 |
| 20260506163232 | 47 | 286 | 4.0 | 9.0 | 0.00 | 0.00 | 0.00 | 51 | 1014.4 |
| 20260506162728 | 47 | 280 | 6.0 | 10.0 | 0.00 | 0.00 | 0.00 | 52 | 1014.2 |
| 20260506162228 | 47 | 298 | 7.0 | 12.0 | 0.00 | 0.00 | 0.00 | 51 | 1014.2 |
| 20260506161729 | 47 | 305 | 5.0 | 12.0 | 0.00 | 0.00 | 0.00 | 49 | 1014.1 |
| 20260506161233 | 47 | 243 | 5.0 | 9.0 | 0.00 | 0.00 | 0.00 | 51 | 1014.2 |
| 20260506160728 | 47 | 298 | 7.0 | 11.0 | 0.00 | 0.00 | 0.00 | 49 | 1014.2 |
| 20260506160229 | 47 | 313 | 6.0 | 11.0 | 0.00 | 0.00 | 0.00 | 48 | 1014.1 |
| 20260506160036 | 47 | 309 | 6.0 | 9.0 | 0.00 | 0.00 | 0.00 | 49 | 1014.1 |
| 20260506155806 | 47 | 305 | 5.0 | 10.0 | 0.00 | 0.00 | 0.00 | 49 | 1014.0 |
| 20260506154730 | 48 | 298 | 5.0 | 9.0 | 0.00 | 0.00 | 0.00 | 49 | 1014.0 |
| 20260506154227 | 48 | 303 | 5.0 | 9.0 | 0.00 | 0.00 | 0.00 | 49 | 1013.9 |
| 20260506153727 | 48 | 281 | 7.0 | 11.0 | 0.00 | 0.00 | 0.00 | 49 | 1014.1 |
| 20260506153226 | 48 | 311 | 7.0 | 11.0 | 0.00 | 0.00 | 0.00 | 48 | 1013.9 |
| 20260506152726 | 48 | 309 | 6.0 | 10.0 | 0.00 | 0.00 | 0.00 | 47 | 1014.0 |
| 20260506152221 | 48 | 304 | 6.0 | 10.0 | 0.00 | 0.00 | 0.00 | 48 | 1014.0 |
| 20260506151716 | 47 | 5 | 7.0 | 11.0 | 0.00 | 0.00 | 0.00 | 48 | 1014.1 |
| 20260506151219 | 48 | 305 | 6.0 | 11.0 | 0.00 | 0.00 | 0.00 | 46 | 1014.1 |
| 20260506150716 | 48 | 306 | 5.0 | 10.0 | 0.00 | 0.00 | 0.00 | 48 | 1014.2 |
| 20260506150217 | 47 | 339 | 6.0 | 10.0 | 0.00 | 0.00 | 0.00 | 48 | 1014.2 |
| 20260506145720 | 46 | 322 | 7.0 | 10.0 | 0.00 | 0.00 | 0.00 | 51 | 1014.1 |
| 20260506145216 | 46 | 316 | 7.0 | 10.0 | 0.00 | 0.00 | 0.00 | 48 | 1014.2 |
| 20260506144718 | 47 | 287 | 6.0 | 10.0 | 0.00 | 0.00 | 0.00 | 48 | 1014.1 |
| 20260506144218 | 47 | 314 | 5.0 | 9.0 | 0.00 | 0.00 | 0.00 | 47 | 1014.1 |
| 20260506143719 | 47 | 302 | 5.0 | 10.0 | 0.00 | 0.00 | 0.00 | 49 | 1014.0 |
| 20260506143216 | 47 | 355 | 6.0 | 10.0 | 0.00 | 0.00 | 0.00 | 49 | 1013.9 |
| 20260506142715 | 46 | 340 | 5.0 | 9.0 | 0.00 | 0.00 | 0.00 | 52 | 1013.8 |
| 20260506142215 | 45 | 313 | 6.0 | 9.0 | 0.00 | 0.00 | 0.00 | 49 | 1013.8 |
| 20260506142151 | 47 | 317 | 6.0 | 10.0 | 0.00 | 0.00 | 0.00 | 47 | 1013.8 |
| 20260506142140 | 47 | 319 | 6.0 | 10.0 | 0.00 | 0.00 | 0.00 | 47 | 1013.7 |
| 20260506141825 | 46 | 317 | 5.0 | 10.0 | 0.00 | 0.00 | 0.00 | 48 | 1013.9 |
| 20260506140216 | 47 | 315 | 7.0 | 10.0 | 0.00 | 0.00 | 0.00 | 48 | 1013.7 |
| 20260506135713 | 47 | 317 | 8.0 | 12.0 | 0.00 | 0.00 | 0.00 | 47 | 1013.7 |
| 20260506135211 | 48 | 313 | 7.0 | 12.0 | 0.00 | 0.00 | 0.00 | 48 | 1013.7 |
| 20260506135024 | 47 | 314 | 5.0 | 9.0 | 0.00 | 0.00 | 0.00 | 50 | 1013.6 |
| 20260506134210 | 47 | 323 | 5.0 | 9.0 | 0.00 | 0.00 | 0.00 | 50 | 1013.6 |
| 20260506133710 | 47 | 316 | 5.0 | 9.0 | 0.00 | 0.00 | 0.00 | 50 | 1013.6 |
| 20260506133210 | 46 | 337 | 6.0 | 9.0 | 0.00 | 0.00 | 0.00 | 51 | 1013.6 |
| 20260506132710 | 46 | 323 | 5.0 | 9.0 | 0.00 | 0.00 | 0.00 | 51 | 1013.7 |
| 20260506132210 | 45 | 321 | 6.0 | 10.0 | 0.00 | 0.00 | 0.00 | 54 | 1013.6 |
| 20260506132023 | 44 | 317 | 6.0 | 10.0 | 0.00 | 0.00 | 0.00 | 53 | 1013.6 |
| 20260506131209 | 44 | 316 | 5.0 | 8.0 | 0.00 | 0.00 | 0.00 | 55 | 1013.4 |
| 20260506130708 | 44 | 309 | 6.0 | 8.0 | 0.00 | 0.00 | 0.00 | 55 | 1013.3 |
| 20260506130209 | 43 | 311 | 6.0 | 8.0 | 0.00 | 0.00 | 0.00 | 55 | 1013.2 |
| 20260506125708 | 43 | 315 | 6.0 | 9.0 | 0.00 | 0.00 | 0.00 | 56 | 1013.2 |
| 20260506125207 | 43 | 318 | 6.0 | 9.0 | 0.00 | 0.00 | 0.00 | 57 | 1013.3 |
| 20260506124704 | 42 | 314 | 6.0 | 9.0 | 0.00 | 0.00 | 0.00 | 56 | 1013.2 |
| 20260506124202 | 42 | 311 | 6.0 | 9.0 | 0.00 | 0.00 | 0.00 | 57 | 1013.3 |
| 20260506123702 | 42 | 311 | 5.0 | 8.0 | 0.00 | 0.00 | 0.00 | 56 | 1013.2 |
| 20260506123624 | 42 | 327 | 4.0 | 6.0 | 0.00 | 0.00 | 0.00 | 59 | 1013.0 |
| 20260506123617 | 42 | 327 | 4.0 | 7.0 | 0.00 | 0.00 | 0.00 | 57 | 1013.1 |
| 20260506122202 | 41 | 319 | 3.0 | 6.0 | 0.00 | 0.00 | 0.00 | 61 | 1012.9 |
| 20260506121701 | 40 | 312 | 3.0 | 5.0 | 0.00 | 0.00 | 0.00 | 61 | 1012.8 |
| 20260506121201 | 40 | 319 | 3.0 | 5.0 | 0.00 | 0.00 | 0.00 | 64 | 1012.7 |
| 20260506120703 | 39 | 307 | 3.0 | 5.0 | 0.00 | 0.00 | 0.00 | 64 | 1012.7 |
| 20260506120504 | 38 | 302 | 3.0 | 5.0 | 0.00 | 0.00 | 0.00 | 67 | 1012.8 |
| 20260506115701 | 37 | 309 | 3.0 | 5.0 | 0.00 | 0.00 | 0.00 | 69 | 1012.7 |
| 20260506115201 | 36 | 310 | 1.0 | 5.0 | 0.00 | 0.00 | 0.00 | 72 | 1012.7 |
| 20260506114702 | 35 | 245 | 0.0 | 3.0 | 0.00 | 0.00 | 0.00 | 72 | 1012.7 |
| 20260506114200 | 35 | 245 | 0.0 | 1.0 | 0.00 | 0.00 | 0.00 | 73 | 1012.7 |
| 20260506113659 | 35 | 244 | 0.0 | 0.0 | 0.00 | 0.00 | 0.00 | 72 | 1012.6 |
| 20260506113201 | 35 | 244 | 0.0 | 0.0 | 0.00 | 0.00 | 0.00 | 72 | 1012.7 |
| 20260506112659 | 35 | 244 | 0.0 | 0.0 | 0.00 | 0.00 | 0.00 | 72 | 1012.5 |
| 20260506112156 | 35 | 244 | 0.0 | 0.0 | 0.00 | 0.00 | 0.00 | 71 | 1012.2 |
| 20260506111656 | 35 | 244 | 0.0 | 1.0 | 0.00 | 0.00 | 0.00 | 71 | 1012.3 |
| 20260506111149 | 35 | 244 | 0.0 | 3.0 | 0.00 | 0.00 | 0.00 | 70 | 1012.1 |
| 20260506110648 | 35 | 244 | 0.0 | 3.0 | 0.00 | 0.00 | 0.00 | 70 | 1012.0 |
| 20260506110147 | 36 | 327 | 0.0 | 1.0 | 0.00 | 0.00 | 0.00 | 69 | 1011.9 |
| 20260506105648 | 36 | 327 | 0.0 | 0.0 | 0.00 | 0.00 | 0.00 | 69 | 1011.9 |
| 20260506105148 | 36 | 327 | 0.0 | 0.0 | 0.00 | 0.00 | 0.00 | 69 | 1011.9 |
| 20260506104647 | 36 | 327 | 0.0 | 1.0 | 0.00 | 0.00 | 0.00 | 69 | 1011.8 |
| 20260506104148 | 36 | 327 | 0.0 | 1.0 | 0.00 | 0.00 | 0.00 | 69 | 1011.8 |
| 20260506103645 | 36 | 327 | 0.0 | 1.0 | 0.00 | 0.00 | 0.00 | 69 | 1011.9 |
| 20260506103146 | 36 | 327 | 0.0 | 1.0 | 0.00 | 0.00 | 0.00 | 68 | 1012.0 |
| 20260506102954 | 36 | 327 | 1.0 | 4.0 | 0.00 | 0.00 | 0.00 | 68 | 1011.9 |
| 20260506102145 | 36 | 327 | 1.0 | 5.0 | 0.00 | 0.00 | 0.00 | 69 | 1012.0 |
| 20260506101646 | 36 | 201 | 0.0 | 5.0 | 0.00 | 0.00 | 0.00 | 68 | 1012.0 |
| 20260506101146 | 36 | 263 | 0.0 | 0.0 | 0.00 | 0.00 | 0.00 | 68 | 1011.9 |
| 20260506100642 | 37 | 263 | 0.0 | 0.0 | 0.00 | 0.00 | 0.00 | 69 | 1011.8 |
| 20260506100141 | 37 | 263 | 0.0 | 0.0 | 0.00 | 0.00 | 0.00 | 69 | 1011.8 |
| 20260506095642 | 36 | 263 | 0.0 | 0.0 | 0.00 | 0.00 | 0.00 | 69 | 1011.7 |
| 20260506095141 | 37 | 263 | 0.0 | 0.0 | 0.00 | 0.00 | 0.00 | 69 | 1011.6 |
| 20260506094639 | 37 | 263 | 0.0 | 0.0 | 0.00 | 0.00 | 0.00 | 69 | 1011.6 |
| 20260506094145 | 37 | 263 | 0.0 | 0.0 | 0.00 | 0.00 | 0.00 | 69 | 1011.5 |
| 20260506093757 | 37 | 263 | 0.0 | 0.0 | 0.00 | 0.00 | 0.00 | 69 | 1011.5 |
| 20260506093728 | 37 | 263 | 0.0 | 0.0 | 0.00 | 0.00 | 0.00 | 69 | 1011.5 |
| 20260506092638 | 37 | 263 | 0.0 | 0.0 | 0.00 | 0.00 | 0.00 | 69 | 1011.5 |
| 20260506092139 | 37 | 263 | 0.0 | 0.0 | 0.00 | 0.00 | 0.00 | 69 | 1011.5 |
| 20260506091634 | 37 | 263 | 0.0 | 0.0 | 0.00 | 0.00 | 0.00 | 68 | 1011.4 |
| 20260506091137 | 37 | 263 | 0.0 | 0.0 | 0.00 | 0.00 | 0.00 | 69 | 1011.4 |
| 20260506090635 | 37 | 263 | 0.0 | 0.0 | 0.00 | 0.00 | 0.00 | 69 | 1011.4 |
| 20260506090135 | 37 | 263 | 0.0 | 0.0 | 0.00 | 0.00 | 0.00 | 69 | 1011.3 |
| 20260506085633 | 37 | 263 | 0.0 | 0.0 | 0.00 | 0.00 | 0.00 | 69 | 1011.3 |
| 20260506085133 | 37 | 263 | 0.0 | 0.0 | 0.00 | 0.00 | 0.00 | 70 | 1011.3 |
| 20260506084634 | 37 | 263 | 0.0 | 0.0 | 0.00 | 0.00 | 0.00 | 71 | 1011.2 |
| 20260506084133 | 37 | 263 | 0.0 | 0.0 | 0.00 | 0.00 | 0.00 | 70 | 1011.0 |
| 20260506083634 | 37 | 263 | 0.0 | 0.0 | 0.00 | 0.00 | 0.00 | 70 | 1011.1 |
| 20260506083133 | 37 | 263 | 0.0 | 0.0 | 0.00 | 0.00 | 0.00 | 71 | 1011.1 |
| 20260506082633 | 38 | 263 | 0.0 | 0.0 | 0.00 | 0.00 | 0.00 | 69 | 1011.2 |
| 20260506082129 | 38 | 263 | 0.0 | 0.0 | 0.00 | 0.00 | 0.00 | 69 | 1011.3 |
| 20260506081629 | 38 | 263 | 0.0 | 0.0 | 0.00 | 0.00 | 0.00 | 68 | 1011.2 |
| 20260506081129 | 38 | 263 | 0.0 | 0.0 | 0.00 | 0.00 | 0.00 | 68 | 1011.1 |
| 20260506080629 | 38 | 263 | 0.0 | 0.0 | 0.00 | 0.00 | 0.00 | 68 | 1011.1 |
| 20260506080128 | 38 | 263 | 0.0 | 0.0 | 0.00 | 0.00 | 0.00 | 68 | 1011.1 |
| 20260506073434 | 38 | 263 | 1.0 | 3.0 | 0.00 | 0.00 | 0.00 | 71 | 1010.8 |
| 20260506072629 | 38 | 263 | 1.0 | 3.0 | 0.00 | 0.00 | 0.00 | 71 | 1010.7 |
| 20260506072129 | 38 | 263 | 1.0 | 3.0 | 0.00 | 0.00 | 0.00 | 71 | 1010.7 |
| 20260506071932 | 38 | 263 | 0.0 | 3.0 | 0.00 | 0.00 | 0.00 | 70 | 1010.6 |
| 20260506071129 | 39 | 306 | 0.0 | 0.0 | 0.00 | 0.00 | 0.00 | 70 | 1010.6 |
| 20260506070629 | 39 | 306 | 0.0 | 0.0 | 0.00 | 0.00 | 0.00 | 69 | 1010.5 |
| 20260506070431 | 39 | 306 | 0.0 | 1.0 | 0.00 | 0.00 | 0.00 | 68 | 1010.6 |
| 20260506062152 | 40 | 306 | 0.0 | 0.0 | 0.00 | 0.00 | 0.00 | 68 | 1010.4 |
| 20260506061131 | 40 | 306 | 0.0 | 0.0 | 0.00 | 0.00 | 0.00 | 67 | 1010.4 |
| 20260506060630 | 41 | 306 | 0.0 | 0.0 | 0.00 | 0.00 | 0.00 | 65 | 1010.4 |
| 20260506060130 | 41 | 306 | 0.0 | 0.0 | 0.00 | 0.00 | 0.00 | 65 | 1010.4 |
| 20260506051125 | 43 | 306 | 0.0 | 0.0 | 0.00 | 0.00 | 0.00 | 60 | 1010.1 |
| 20260506050622 | 43 | 306 | 0.0 | 0.0 | 0.00 | 0.00 | 0.00 | 59 | 1010.0 |
| 20260506050121 | 43 | 306 | 0.0 | 0.0 | 0.00 | 0.00 | 0.00 | 58 | 1009.9 |
| 20260506045121 | 44 | 306 | 0.0 | 0.0 | 0.00 | 0.00 | 0.00 | 56 | 1009.8 |
| 20260506044620 | 44 | 306 | 0.0 | 0.0 | 0.00 | 0.00 | 0.00 | 57 | 1009.8 |
| 20260506044121 | 44 | 306 | 0.0 | 0.0 | 0.00 | 0.00 | 0.00 | 57 | 1009.8 |
| 20260506043621 | 44 | 306 | 0.0 | 0.0 | 0.00 | 0.00 | 0.00 | 55 | 1009.8 |
| 20260506043120 | 45 | 306 | 0.0 | 0.0 | 0.00 | 0.00 | 0.00 | 55 | 1009.8 |
| 20260506042618 | 45 | 306 | 0.0 | 0.0 | 0.00 | 0.00 | 0.00 | 57 | 1009.8 |
| 20260506042119 | 45 | 306 | 0.0 | 0.0 | 0.00 | 0.00 | 0.00 | 59 | 1009.8 |
| 20260506041619 | 45 | 306 | 0.0 | 2.0 | 0.00 | 0.00 | 0.00 | 57 | 1009.8 |
| 20260506041113 | 46 | 306 | 1.0 | 2.0 | 0.00 | 0.00 | 0.00 | 56 | 1009.8 |
| 20260506040616 | 46 | 306 | 2.0 | 3.0 | 0.00 | 0.00 | 0.00 | 55 | 1009.8 |
| 20260506040115 | 46 | 306 | 2.0 | 3.0 | 0.00 | 0.00 | 0.00 | 54 | 1009.8 |
| 20260506035614 | 46 | 306 | 2.0 | 2.0 | 0.00 | 0.00 | 0.00 | 53 | 1009.7 |
| 20260506035110 | 46 | 306 | 2.0 | 2.0 | 0.00 | 0.00 | 0.00 | 52 | 1009.7 |
| 20260506034611 | 46 | 306 | 2.0 | 3.0 | 0.00 | 0.00 | 0.00 | 52 | 1009.7 |
| 20260506034247 | 46 | 306 | 2.0 | 3.0 | 0.00 | 0.00 | 0.00 | 51 | 1009.6 |
| 20260506034132 | 46 | 306 | 2.0 | 3.0 | 0.00 | 0.00 | 0.00 | 53 | 1009.6 |
| 20260506033106 | 47 | 306 | 2.0 | 3.0 | 0.00 | 0.00 | 0.00 | 52 | 1009.6 |
| 20260506032606 | 47 | 306 | 2.0 | 4.0 | 0.00 | 0.00 | 0.00 | 51 | 1009.7 |
| 20260506032108 | 47 | 306 | 2.0 | 4.0 | 0.00 | 0.00 | 0.00 | 50 | 1009.6 |
| 20260506031608 | 47 | 306 | 2.0 | 3.0 | 0.00 | 0.00 | 0.00 | 50 | 1009.6 |
| 20260506031107 | 47 | 306 | 2.0 | 3.0 | 0.00 | 0.00 | 0.00 | 50 | 1009.7 |
| 20260506030755 | 47 | 306 | 3.0 | 4.0 | 0.00 | 0.00 | 0.00 | 50 | 1009.6 |
| 20260506030632 | 47 | 306 | 3.0 | 4.0 | 0.00 | 0.00 | 0.00 | 51 | 1009.6 |
| 20260506025606 | 47 | 306 | 3.0 | 4.0 | 0.00 | 0.00 | 0.00 | 49 | 1009.6 |
| 20260506025103 | 47 | 306 | 2.0 | 3.0 | 0.00 | 0.00 | 0.00 | 50 | 1009.5 |
| 20260506024745 | 47 | 306 | 3.0 | 5.0 | 0.00 | 0.00 | 0.00 | 49 | 1009.4 |
| 20260506024631 | 47 | 306 | 3.0 | 4.0 | 0.00 | 0.00 | 0.00 | 49 | 1009.5 |
| 20260506023603 | 47 | 306 | 3.0 | 5.0 | 0.00 | 0.00 | 0.00 | 48 | 1009.4 |
| 20260506023102 | 47 | 306 | 3.0 | 4.0 | 0.00 | 0.00 | 0.00 | 49 | 1009.3 |
| 20260506022603 | 47 | 306 | 3.0 | 4.0 | 0.00 | 0.00 | 0.00 | 49 | 1009.3 |
| 20260506022108 | 47 | 306 | 3.0 | 4.0 | 0.00 | 0.00 | 0.00 | 49 | 1009.3 |
| 20260506021734 | 47 | 306 | 3.0 | 4.0 | 0.00 | 0.00 | 0.00 | 48 | 1009.1 |
| 20260506021626 | 47 | 306 | 3.0 | 4.0 | 0.00 | 0.00 | 0.00 | 48 | 1009.2 |
| 20260506020602 | 47 | 306 | 3.0 | 4.0 | 0.00 | 0.00 | 0.00 | 48 | 1009.0 |
| 20260506015605 | 48 | 306 | 4.0 | 5.0 | 0.00 | 0.00 | 0.00 | 47 | 1009.0 |
| 20260506015102 | 48 | 311 | 4.0 | 7.0 | 0.00 | 0.00 | 0.00 | 46 | 1009.0 |
| 20260506014602 | 48 | 310 | 4.0 | 7.0 | 0.00 | 0.00 | 0.00 | 46 | 1008.9 |
| 20260506014101 | 48 | 301 | 4.0 | 5.0 | 0.00 | 0.00 | 0.00 | 46 | 1008.9 |
| 20260506013604 | 49 | 309 | 4.0 | 7.0 | 0.00 | 0.00 | 0.00 | 45 | 1008.8 |
| 20260506013100 | 49 | 308 | 4.0 | 7.0 | 0.00 | 0.00 | 0.00 | 44 | 1008.7 |
| 20260506012604 | 49 | 309 | 4.0 | 7.0 | 0.00 | 0.00 | 0.00 | 45 | 1008.7 |
| 20260506012330 | 49 | 307 | 5.0 | 8.0 | 0.00 | 0.00 | 0.00 | 43 | 1008.7 |
| 20260506012137 | 49 | 309 | 5.0 | 8.0 | 0.00 | 0.00 | 0.00 | 44 | 1008.7 |
| 20260506011305 | 49 | 310 | 4.0 | 8.0 | 0.00 | 0.00 | 0.00 | 44 | 1008.6 |
| 20260506011124 | 49 | 310 | 5.0 | 8.0 | 0.00 | 0.00 | 0.00 | 43 | 1008.6 |
| 20260506010316 | 50 | 309 | 2.0 | 4.0 | 0.00 | 0.00 | 0.00 | 44 | 1008.6 |
| 20260506010128 | 49 | 304 | 3.0 | 8.0 | 0.00 | 0.00 | 0.00 | 43 | 1008.6 |
| 20260506005056 | 50 | 309 | 3.0 | 4.0 | 0.00 | 0.00 | 0.00 | 42 | 1008.5 |
| 20260506004757 | 50 | 297 | 3.0 | 6.0 | 0.00 | 0.00 | 0.00 | 42 | 1008.4 |
| 20260506004614 | 50 | 311 | 3.0 | 4.0 | 0.00 | 0.00 | 0.00 | 44 | 1008.4 |
| 20260506003549 | 50 | 313 | 4.0 | 8.0 | 0.00 | 0.00 | 0.00 | 42 | 1008.4 |
| 20260506003048 | 50 | 304 | 6.0 | 9.0 | 0.00 | 0.00 | 0.00 | 41 | 1008.3 |
| 20260506002839 | 51 | 309 | 4.0 | 8.0 | 0.00 | 0.00 | 0.00 | 41 | 1008.3 |
| 20260506002622 | 50 | 310 | 6.0 | 9.0 | 0.00 | 0.00 | 0.00 | 40 | 1008.3 |
| 20260506001548 | 51 | 306 | 4.0 | 6.0 | 0.00 | 0.00 | 0.00 | 41 | 1008.3 |
| 20260506001050 | 51 | 307 | 4.0 | 7.0 | 0.00 | 0.00 | 0.00 | 41 | 1008.3 |
| 20260506000550 | 51 | 307 | 5.0 | 8.0 | 0.00 | 0.00 | 0.00 | 41 | 1008.2 |
| 20260506000047 | 51 | 305 | 5.0 | 8.0 | 0.00 | 0.00 | 0.00 | 41 | 1008.2 |
| 20260505235546 | 51 | 307 | 5.0 | 7.0 | 0.00 | 0.00 | 0.00 | 41 | 1008.2 |
| 20260505235049 | 51 | 302 | 5.0 | 7.0 | 0.00 | 0.00 | 0.00 | 41 | 1008.2 |
| 20260505234817 | 51 | 311 | 5.0 | 8.0 | 0.00 | 0.00 | 0.00 | 41 | 1008.2 |
| 20260505234619 | 51 | 294 | 5.0 | 8.0 | 0.00 | 0.00 | 0.00 | 41 | 1008.2 |
| 20260505233544 | 51 | 298 | 4.0 | 7.0 | 0.00 | 0.00 | 0.00 | 40 | 1008.1 |
| 20260505233044 | 51 | 308 | 4.0 | 7.0 | 0.00 | 0.00 | 0.00 | 41 | 1008.2 |
| 20260505232542 | 51 | 298 | 5.0 | 8.0 | 0.00 | 0.00 | 0.00 | 41 | 1008.2 |
| 20260505232042 | 51 | 308 | 6.0 | 9.0 | 0.00 | 0.00 | 0.00 | 38 | 1008.2 |
| 20260505231543 | 51 | 310 | 7.0 | 9.0 | 0.00 | 0.00 | 0.00 | 38 | 1008.2 |
| 20260505231047 | 51 | 303 | 7.0 | 10.0 | 0.00 | 0.00 | 0.00 | 39 | 1008.3 |
| 20260505230646 | 52 | 306 | 7.0 | 12.0 | 0.00 | 0.00 | 0.00 | 38 | 1008.4 |
| 20260505230547 | 51 | 302 | 7.0 | 10.0 | 0.00 | 0.00 | 0.00 | 39 | 1008.2 |
| 20260505230215 | 52 | 305 | 7.0 | 10.0 | 0.00 | 0.00 | 0.00 | 38 | 1008.3 |
| 20260505225615 | 52 | 302 | 7.0 | 12.0 | 0.00 | 0.00 | 0.00 | 38 | 1008.4 |
| 20260505224543 | 53 | 309 | 8.0 | 10.0 | 0.00 | 0.00 | 0.00 | 36 | 1008.4 |
| 20260505224042 | 53 | 315 | 8.0 | 10.0 | 0.00 | 0.00 | 0.00 | 36 | 1008.3 |
| 20260505223542 | 52 | 298 | 8.0 | 11.0 | 0.00 | 0.00 | 0.00 | 37 | 1008.3 |
| 20260505223036 | 52 | 308 | 9.0 | 11.0 | 0.00 | 0.00 | 0.00 | 36 | 1008.3 |
| 20260505222539 | 52 | 300 | 8.0 | 12.0 | 0.00 | 0.00 | 0.00 | 36 | 1008.2 |
| 20260505222042 | 52 | 323 | 8.0 | 12.0 | 0.00 | 0.00 | 0.00 | 37 | 1008.2 |
| 20260505221543 | 53 | 316 | 6.0 | 9.0 | 0.00 | 0.00 | 0.00 | 36 | 1008.2 |
| 20260505221042 | 53 | 306 | 6.0 | 9.0 | 0.00 | 0.00 | 0.00 | 39 | 1008.1 |
| 20260505220538 | 53 | 296 | 7.0 | 11.0 | 0.00 | 0.00 | 0.00 | 39 | 1008.1 |
| 20260505220041 | 53 | 288 | 7.0 | 11.0 | 0.00 | 0.00 | 0.00 | 37 | 1008.1 |
| 20260505215540 | 53 | 306 | 8.0 | 13.0 | 0.00 | 0.00 | 0.00 | 37 | 1008.2 |
| 20260505215040 | 54 | 309 | 7.0 | 13.0 | 0.00 | 0.00 | 0.00 | 36 | 1008.2 |
| 20260505214807 | 55 | 286 | 6.0 | 12.0 | 0.00 | 0.00 | 0.00 | 35 | 1008.1 |
| 20260505214610 | 55 | 307 | 5.0 | 10.0 | 0.00 | 0.00 | 0.00 | 35 | 1008.1 |
| 20260505213540 | 55 | 293 | 9.0 | 13.0 | 0.00 | 0.00 | 0.00 | 37 | 1008.1 |
| 20260505213043 | 56 | 313 | 9.0 | 14.0 | 0.00 | 0.00 | 0.00 | 36 | 1008.2 |